Location: Fort Wayne
(41.1310°N, 85.1290°W)
Time: 14:45:38
(UTC-05:00)

IDEFIX/ARIANE 42P - Visible Passes

Search period start: 26 February 2017 00:00
Search period end: 08 March 2017 00:00
Orbit: 786 x 803 km, 98.2° (Epoch: 26 February)

Date Brightness Start Highest point End Pass type
(mag) Time Alt. Az. Time Alt. Az. Time Alt. Az.
26 Feb 5.8 05:25:16 10° ENE 05:27:30 13° E 05:29:44 10° ESE visible
27 Feb 3.3 06:34:10 10° NNE 06:39:20 60° E 06:44:27 10° S visible
27 Feb 6.3 19:36:21 10° WSW 19:37:56 11° W 19:39:31 10° WNW visible
28 Feb 4.5 06:06:13 10° NNE 06:10:54 32° E 06:15:31 10° SSE visible
28 Feb 5.6 19:05:19 10° SW 19:09:17 21° W 19:13:16 10° NW visible
01 Mar 5.5 05:38:50 10° NE 05:42:20 18° E 05:45:48 10° SE visible
03 Mar 3.9 06:20:38 10° NNE 06:25:37 45° E 06:30:34 10° S visible
03 Mar 5.9 19:21:03 10° SW 19:24:06 15° W 19:27:09 10° NW visible
04 Mar 5.0 05:52:53 10° NE 05:57:08 25° E 06:01:19 10° SSE visible
05 Mar 5.8 05:26:03 10° ENE 05:28:30 13° E 05:30:57 10° ESE visible
06 Mar 3.2 06:35:09 10° NNE 06:40:19 63° E 06:45:27 10° S visible
06 Mar 6.4 19:37:52 10° W 19:38:57 11° W 19:40:02 10° WNW visible
07 Mar 4.5 06:07:10 10° NNE 06:11:53 34° E 06:16:33 10° SSE visible
07 Mar 5.7 19:06:27 10° SW 19:10:18 20° W 19:14:09 10° NW visible
